Regional Weather Roundup
Issued by NWS Pendleton, OR

Home | Current Version | Previous Version | Text Only | Print | Product List | Glossary On
Versions: 1 2 3 4 5 6 7 8 9 10 11 12 13 14 15 16 17 18 19 20 21 22 23 24 25 26 27 28 29 30 31 32 33 34 35 36 37 38 39 40 41 42 43 44 45 46 47 48 49 50
000
ASUS46 KPDT 241725
RWRPDT
PENDLETON REGIONAL WEATHER ROUNDUP
NATIONAL WEATHER SERVICE PENDLETON OREGON
1000 AM PDT WED AUG 24 2016

NOTE: FAIR INDICATES FEW OR NO CLOUDS BELOW 12,000 FEET WITH NO
SIGNIFICANT WEATHER AND/OR OBSTRUCTIONS TO VISIBILITY.

# INDICATES UNOFFICIAL STATION AND DATA

WAZ520-241810-
EAST SLOPES OF WASHINGTON CASCADES

CITY            SKY/WX      TMP DP  RH  WIND    PRES   REMARKS
#CLE ELUM HS    N/A         70  49  47  CALM    30.19S
#CLE ELUM 2NW   N/A         71  46  41  SE1     N/A
#GLENWOOD       N/A         65  53  65  CALM    30.18F
#MANASTASH CYN  N/A         70  41  35  W1      30.22S
#NELSON 3SW     N/A         67  50  54  CALM    30.37F
#NILE           N/A         65  45  48  W1      29.48F
#RONALD 2NW     N/A         66  N/A N/A W1      30.13F
#TEANAWAY 4NE   N/A         68  53  59  W2      N/A
#TROUT LAKE 1NE N/A         71  52  51  CALM    30.16F
#TROUT LAKE 1E  N/A         71  55  57  CALM    30.17F
$$

WAZ521-241810-
SIMCOE HIGHLANDS

CITY            SKY/WX      TMP DP  RH  WIND    PRES   REMARKS
#CENTERVILLE 1SWN/A         74  45  35  CALM    30.13S
#GOLDENDALE 1NE N/A         72  31  22  CALM    N/A
#GOLDENDALE 4W  N/A         78  51  39  CALM    30.24R
#GOODNOE HILLS  N/A         75  46  36  W9      30.12R
#LYLE 6NE       N/A         69  46  44  S1      30.13S
$$

WAZ026-241810-
KITTITAS VALLEY

CITY            SKY/WX      TMP DP  RH  WIND    PRES   REMARKS
ELLENSBURG AP   SUNNY       72  48  43  CALM    30.23F
#ELLENSBURG CWU N/A         69  51  53  CALM    30.12F
#ELLENSBURG 3NE N/A         69  55  61  CALM    30.22F
#ELLENSBURG     N/A         77  53  43  S1      N/A
#ELLENSBURG 1E  N/A         67  N/A N/A CALM    N/A
#KITTITAS 4N    N/A         71  54  55  SW2     30.18S
#KITTITAS 3S    N/A         66  53  63  CALM    30.16F
#THORP 6N       N/A         68  46  45  N7      30.18F
$$

WAZ027-241810-
YAKIMA VALLEY

CITY            SKY/WX      TMP DP  RH  WIND    PRES   REMARKS
SUNNYSIDE AP    N/A         76  45  33  E5      30.19F
YAKIMA AIRPORT  SUNNY       75  46  36  NW3     30.22S
YAKIMA-VAGABOND N/A         73  42  33  W2      30.20S
#DONALD 2NE     N/A         83   9   6  S1      29.04F
#GRANDVIEW      N/A         75  47  37  NW3     30.18S
#MABTON         N/A         75  52  45  W7      30.18F
#NACHES 2SW     N/A         71  53  53  W1      30.24F
#TERRACE HTS    N/A         74  47  38  W1      30.13S
#TOPPENISH      N/A         74  51  44  CALM    30.09S
#WHITE SWAN 5E  N/A         76  51  42  CALM    30.18S
#WILEY CITY 3W  N/A         79  41  26  CALM    30.19S
$$

WAZ028-241810-
LOWER COLUMBIA BASIN...WASHINGTON

CITY            SKY/WX      TMP DP  RH  WIND    PRES   REMARKS
HANFORD         SUNNY       78  41  27  NE13    30.18S
PASCO           SUNNY       73  48  41  N9      30.19S
PROSSER AWOS    N/A         75  54  48  SW5     30.22F
RICHLAND AWOS   SUNNY       80  46  30  N8      30.18S
#BENTON CITY    N/A         77  47  35  NE8     30.07S
#CONNELL 5N     N/A         76  47  36  N6      30.15S
#CONNELL 5NW    N/A         73  44  35  CALM    30.11S
#ELTOPIA 6NW    N/A         72  51  48  CALM    29.16R
#KAHLOTUS       N/A         69  45  42  SE7     30.15R
#KENNEWICK 3S   N/A         72  51  48  CALM    30.17R
#PATERSON       N/A         68  53  59  SW1     30.16S
#SAGEMOOR 2W    N/A         70  52  53  N5      30.01S
#TOUCHET 2S     N/A         73  49  43  N6      30.14F
#WEST PASCO     N/A         75  52  45  N5      30.19F
$$

WAZ029-241810-
FOOTHILLS OF THE BLUES...WASHINGTON

CITY            SKY/WX      TMP DP  RH  WIND    PRES   REMARKS
WALLA WALLA AP  SUNNY       70  42  36  SW9     30.19S
#CLYDE 6NW      N/A         71  45  39  E1      30.14S
#DAYTON SCHOOL  N/A         73  40  30  W6      30.18S
#LOWDEN 2SE     N/A         70  49  47  W5      30.14S
#PLEASANT VIEW 1N/A         71  44  38  E1      30.17S
#PRESCOTT       N/A         73  48  41  CALM    30.16S
#WHITMAN COLLEGEN/A         70  47  44  SW5     30.19F
#WAITSBURG 8N   N/A         73  21  14  S6      30.18S
#WHITMAN MISSIONN/A         70  48  46  W3      30.16F
$$

WAZ030-241810-
BLUE MOUNTAINS...WASHINGTON

CITY            SKY/WX      TMP DP  RH  WIND    PRES   REMARKS
#DIXIE 5SE      N/A         67  43  42  SW6     30.16S
$$

ORZ009-041-WAZ024-241810-
COLUMBIA RIVER GORGE

CITY            SKY/WX      TMP DP  RH  WIND    PRES   REMARKS
HOOD RIVER AP   SUNNY       70  50  49  CALM    30.21S
THE DALLES AP   SUNNY       71  48  44  W3      30.19S
#ARLINGTON AIRPON/A         72  50  46  W3      30.17S
#LYLE           N/A         69  52  55  W3      30.19F
#MARYHILL 2W    N/A         N/A N/A N/A CALM    N/A
#MOSIER 1S      N/A         71  41  34  CALM    30.18S
#MURDOCK        N/A         70  51  51  W3      30.14F
#SMITHVILLE     N/A         70  51  51  N3      30.22F

$$

ORZ510-241810-
NORTH CENTRAL OREGON

CITY            SKY/WX      TMP DP  RH  WIND    PRES   REMARKS
#ANTELOPE       N/A         71  43  36  E5      30.02F
#DUFUR 9E       N/A         72  43  35  E10     30.19S
#GRASS VALLEY 1SN/A         74  41  30  E7      30.18R
#MAUPIN SCHOOL  N/A         70  45  41  SW1     30.24F
#TYGH VALLEY 2NEN/A         67  45  45  CALM    30.18R
#WAPANITIA AIRPON/A         73  44  35  CALM    30.19S
#WASCO AIRPORT  N/A         72  42  34  NW3     N/A
#WASCO 5NE      N/A         76  48  37  CALM    30.16S
$$

ORZ511-241810-
CENTRAL OREGON

CITY            SKY/WX      TMP DP  RH  WIND    PRES   REMARKS
BEND AIRPORT    N/A         N/A N/A N/A MISG    N/A
MADRAS AIRPORT  SUNNY       72  39  30  CALM    30.28S
PRINEVILLE AP   SUNNY       70  36  29  CALM    30.27S
REDMOND AIRPORT SUNNY       68  31  25  CALM    30.27S
#ASHWOOD SCHOOL N/A         70  37  30  CALM    30.19F
#BEND 1SW       N/A         66  37  34  NE1     N/A
#BEND-AWBREY    N/A         66  38  36  CALM    30.15S
#CULVER         N/A         66  40  38  CALM    30.11S
#CULVER 8W      N/A         72  33  24  CALM    30.23R
#LAKE BILLY CHINN/A         69  N/A N/A NW3     30.25F
#MADRAS 4S      N/A         67  11  11  CALM    30.31S
#POWELL BUTTE 3EN/A         60  38  44  NW3     N/A
#POWELL BUTTE   N/A         71  44  38  NW2     30.12S
#PRINEVILLE 3N  N/A         65  44  46  CALM    30.23F
#WARM SPRINGS   N/A         70  43  38  CALM    30.20F

$$


ORZ509-241810-
EAST SLOPES OF OREGON CASCADES

CITY            SKY/WX      TMP DP  RH  WIND    PRES   REMARKS
SISTERS AWOS    N/A         68  36  31  N8      30.23S
#CAMP SHERMAN   N/A         70  38  31  CALM    30.23F
#LA PINE 4NW    N/A         64  39  40  NE2     30.20F
#SISTERS AIRPOR N/A         69  46  44  N2      30.17S
#SISTERS ODOT   N/A         66  N/A N/A NW1     N/A
#SISTERS 3N     N/A         69  43  39  E6      30.19S
#SUNRIVER       N/A         67  38  34  N3      30.17F
#TUMALO 3W      N/A         67  38  34  NE2     30.02F

$$

ORZ044-241810-
LOWER COLUMBIA BASIN...OREGON

CITY            SKY/WX      TMP DP  RH  WIND    PRES   REMARKS
HERMISTON       N/A         71  44  38  W5      30.19S
#BOARDMAN SCHOOLN/A         69  50  51  CALM    30.17F
#ECHO 8SW       N/A         75  45  34  CALM    30.20R
#UMATILLA       N/A         71  48  44  CALM    30.11S
$$

ORZ507-241810-
NORTHERN FOOTHILLS OF THE BLUES

CITY            SKY/WX      TMP DP  RH  WIND    PRES   REMARKS
PENDLETON AIRPT SUNNY       72  40  31  W6      30.20S
#ADAMS 3WNW     N/A         71  43  36  SW6     30.17S
#ATHENA         N/A         70  45  41  CALM    30.19S
#CAYUSE         N/A         71  45  39  SW3     30.16R
#HELIX SCHOOL   N/A         69  44  40  CALM    30.16S
#HELIX 3N       N/A         72  43  35  W5      30.17S
#HELIX 6SW      N/A         70  43  38  W6      30.19S
#HOLDMAN 5SE    N/A         71  43  36  CALM    30.19S
#HOLDMAN 6E     N/A         71  43  36  CALM    29.96S
#M-F GROVE ELEM N/A         72  43  35  CALM    30.16S
#M-FREEWATER 5SEN/A         72  49  44  W1      30.18R
#PENDLETON DNTN N/A         73  46  38  CALM    30.22S
#PDT AQUATIC CTRN/A         69  46  44  SW2     30.19S
#PDT SUNRIDGE   N/A         72  44  37  NW2     30.21S
#PENDLETON 7NW  N/A         75  50  41  CALM    31.42S
#PILOT ROCK 1S  N/A         72  41  33  N2      30.21R
#PILOT ROCK     N/A         71  45  39  NW3     30.20R
#TUTUILLA       N/A         72  44  37  CALM    30.19S
#UMAPINE 2E     N/A         72  51  48  NW1     30.16S
#WESTON SCHOOL  N/A         69  39  33  VRB6    30.08R

$$

ORZ508-241810-
SOUTHERN FOOTHILLS OF THE BLUES

CITY            SKY/WX      TMP DP  RH  WIND    PRES   REMARKS
LEXINGTON       MOSUNNY     73  41  31  N5      30.25S
#AJAX           N/A         73  37  27  N9      27.97R
#CONDON SCHOOL  N/A         70  43  38  N8      30.20R
#CONDON 5W      N/A         67  38  34  NE10    30.24R
#FOSSIL SCHOOL  N/A         73  41  31  N7      30.18S
#HEPPNER EOC    N/A         73  43  34  NW1     30.10S
#LEXINGTON 2SE  N/A         76  45  33  N3      30.19R
#MIKKALO        N/A         78  41  27  E5      30.32S
#OLEX 4N        N/A         76  44  32  NE2     30.18S
#RUGGS 5NE      N/A         70  41  35  N9      30.43R
#RUGGS 2SW      N/A         70  41  35  N7      30.18R

$$

ORZ502-503-241810-
BLUE MOUNTAINS

CITY            SKY/WX      TMP DP  RH  WIND    PRES   REMARKS
MEACHAM         SUNNY       67  36  32  MISG    30.27R
#CUTSFORTH PARK N/A         65  41  41  CALM    30.07R
#HARDMAN 10S    N/A         66  40  38  N7      30.26R
#HEPPNER 15SE   N/A         63  39  41  W6      30.22R
#LONG CREEK HS  N/A         65  43  45  NE3     30.27S
#PIKES PEAK     N/A         61  42  50  SW9     27.99S
#TOLLGATE       N/A         60  42  51  CALM    30.13R
#TROY SCHOOL    N/A         70  46  42  CALM    29.99F
#UKIAH          N/A         59  41  51  CALM    30.15F
#WESTON 4E      N/A         68  42  39  SW2     30.10S
$$

ORZ505-241810-
JOHN DAY BASIN

CITY            SKY/WX      TMP DP  RH  WIND    PRES   REMARKS
JOHN DAY        SUNNY       67  37  33  W6      30.26F
#DAYVILLE SCHOOLN/A         66  38  36  CALM    30.19F
#MITCHELL       N/A         72  44  37  CALM    30.40S
#MITCHELL 8NW   N/A         67  34  29  CALM    30.34R
#MONUMENT HS    N/A         66  37  34  CALM    30.15F
#MT. VERNON 5SE N/A         63  40  43  W3      30.23S
#SPRAY SCHOOL   N/A         70  N/A N/A CALM    N/A
$$

ORZ506-241810-
OCHOCO AND JOHN DAY HIGHLANDS

CITY            SKY/WX      TMP DP  RH  WIND    PRES   REMARKS
#KEYES SMT DOT  N/A         66  38  36  N5      N/A
#PINE MTN OBS   N/A         56  35  45  CALM    N/A
#PRAIRIE CITY   N/A         66  39  37  W1      30.42S
#SENECA         N/A         64  N/A N/A W2      N/A
#SENECA 9NW     N/A         62  38  41  NW2     30.14S
$$

ORZ049-241810-
GRANDE RONDE VALLEY

CITY            SKY/WX      TMP DP  RH  WIND    PRES   REMARKS
LA GRANDE       SUNNY       72  39  30  NW5     30.22F
#COVE           N/A         64  45  50  CALM    30.24S
#COVE SCHOOL    N/A         66  44  45  CALM    30.23S
#COVE 6NW       N/A         63  43  48  NW1     30.11S
#ELGIN 3N       N/A         72  41  33  CALM    30.18F
#ELGIN 1E       N/A         65  43  45  CALM    N/A
#IMBLER SCHOOL  N/A         64  43  46  CALM    30.17F
#ISLAND CITY 4N N/A         74  56  53  CALM    30.17S
#LA GRANDE ELEM N/A         70  43  38  W7      30.22S
#UNION 1S       N/A         65  44  46  NE1     30.06F
$$

ORZ050-241810-
WALLOWA COUNTY

CITY            SKY/WX      TMP DP  RH  WIND    PRES   REMARKS
JOSEPH AIRPORT  SUNNY       68  36  31  CALM    30.26S
#IMNAHA SCHOOL  N/A         57  41  55  N3      30.20S
#IMNAHA 10S     N/A         71  41  34  NE3     30.19F
#JOSEPH 3N      N/A         64  41  43  CALM    30.26R
#JOSEPH 3W      N/A         66  41  40  E3      30.10S
#LOSTINE        N/A         64  45  50  CALM    29.96S
#LOSTINE 3SE    N/A         70  42  36  N3      30.20F
#MT HOWARD 8000 N/A         46  33  60  N6      30.42R
#PROMISE 1S     N/A         66  42  42  N2      30.23S
#WALLOWA SCHOOL N/A         64  42  45  CALM    30.19F



$$



USA.gov is the U.S. government's official web portal to all federal, state and local government web resources and services.